Jamestown, ND

11:09 AM CST on February 09, 2016 (GMT -0600)
Jamestown Municipal

Weather History for KJMS - March, 2013

Change the Weather History Date:

Sunday, March 3, 2013

  Actual Average Record
Temperature  
Mean Temperature 20 °F 21 °F  
Max Temperature 27 °F 31 °F 74 °F (1905)
Min Temperature 12 °F 12 °F -19 °F (1917)
Degree Days  
Heating Degree Days 45 44  
Month to date heating degree days 148 132  
Since 1 July heating degree days 6895 6891  
Cooling Degree Days 0 0  
Month to date cooling degree days 0 0  
Year to date cooling degree days 0 0  
Moisture  
Dew Point 19 °F    
Average Humidity 87    
Maximum Humidity 92    
Minimum Humidity 81    
Precipitation  
Precipitation 0.06 in 0.02 in 1.06 in (1966)
Month to date precipitation 0.06 0.07  
Year to date precipitation 0.55 0.92  
Sea Level Pressure  
Sea Level Pressure 29.84 in    
Wind  
Wind Speed 14 mph (SE)    
Max Wind Speed 26 mph    
Max Gust Speed 33 mph    
Visibility 6 miles    
Events Rain , Snow    
T = Trace of Precipitation, MM = Missing Value Source: NWS Daily Summary

Daily Weather History Graph

Daily Weather History Graph

Search for Another Location

Airport or City:

Trip Planner

Search our weather history database for the weather conditions in past years. The results will help you decide how hot, cold, wet, or windy it might be!

Date:

Astronomy

Mar. 03, 2013 Rise Set
Actual Time 7:10 AM CST 6:23 PM CST
Civil Twilight 6:39 AM CST 6:54 PM CST
Nautical Twilight 6:04 AM CST 7:29 PM CST
Astronomical Twilight 5:29 AM CST 8:04 PM CST
Moon 12:28 AM CST (3/3) 10:01 AM CST (3/3)
Length of Visible Light 12h 14m
Length of Day
11h 13m
Waning Gibbous, 63% of the Moon is Illuminated
Mar 3
Waning Gibbous
Mar 4
Last Quarter
Mar 11
New
Mar 19
First Quarter
Mar 27
Full

Hourly Weather History & Observations

Time (CST) Temp. Windchill Dew Point Humidity Pressure Visibility Wind Dir Wind Speed Gust Speed Precip Events Conditions
12:56 AM 17.1 °F 11.7 °F 15.1 °F 92% 30.04 in 10.0 mi SSE 3.5 mph - N/A   Overcast
1:56 AM 16.0 °F 8.8 °F 12.9 °F 88% 30.02 in 10.0 mi ESE 4.6 mph - N/A   Clear
2:56 AM 14.0 °F 5.1 °F 10.9 °F 88% 30.01 in 10.0 mi East 5.8 mph - N/A   Partly Cloudy
3:56 AM 14.0 °F 6.5 °F 10.9 °F 88% 29.99 in 10.0 mi ESE 4.6 mph - N/A   Scattered Clouds
4:56 AM 12.0 °F 2.7 °F 10.0 °F 92% 29.99 in 9.0 mi ESE 5.8 mph - N/A   Clear
5:56 AM 14.0 °F 5.1 °F 10.9 °F 88% 29.98 in 9.0 mi SE 5.8 mph - N/A   Overcast
6:56 AM 15.1 °F 4.2 °F 12.0 °F 88% 29.96 in 10.0 mi SSE 8.1 mph - N/A   Overcast
7:56 AM 16.0 °F 5.3 °F 12.9 °F 88% 29.95 in 9.0 mi SE 8.1 mph - N/A   Overcast
8:56 AM 19.0 °F 7.5 °F 16.0 °F 88% 29.94 in 9.0 mi SE 10.4 mph - N/A   Overcast
9:56 AM 21.0 °F 9.9 °F 17.1 °F 85% 29.93 in 9.0 mi SSE 10.4 mph - N/A   Overcast
10:56 AM 24.1 °F 13.1 °F 19.0 °F 81% 29.91 in 9.0 mi SE 11.5 mph - N/A   Overcast
11:56 AM 23.0 °F 11.1 °F 19.0 °F 85% 29.89 in 8.0 mi ESE 12.7 mph - N/A   Overcast
12:56 PM 24.1 °F 12.5 °F 19.0 °F 81% 29.86 in 7.0 mi ESE 12.7 mph - N/A   Mostly Cloudy
1:38 PM 24.8 °F 12.9 °F 19.4 °F 80% 29.77 in 7.0 mi ESE 13.8 mph - N/A   Mostly Cloudy
1:56 PM 25.0 °F 12.6 °F 21.0 °F 85% 29.83 in 6.0 mi ESE 15.0 mph - N/A   Mostly Cloudy
2:06 PM 24.8 °F 12.4 °F 21.2 °F 86% 29.76 in 6.0 mi ESE 15.0 mph - N/A   Overcast
2:56 PM 26.1 °F 13.6 °F 21.0 °F 81% 29.82 in 6.0 mi ESE 16.1 mph - N/A   Haze
3:56 PM 26.1 °F 12.3 °F 21.9 °F 84% 29.82 in 5.0 mi ESE 19.6 mph - N/A   Overcast
4:56 PM 26.1 °F 12.3 °F 21.9 °F 84% 29.81 in 5.0 mi ESE 19.6 mph - N/A   Overcast
5:56 PM 26.1 °F 12.7 °F 21.9 °F 84% 29.81 in 4.0 mi SE 18.4 mph - N/A   Overcast
6:56 PM 26.1 °F 11.6 °F 23.0 °F 88% 29.81 in 5.0 mi SE 21.9 mph 26.5 mph N/A   Overcast
7:56 PM 26.1 °F 12.0 °F 23.0 °F 88% 29.80 in 6.0 mi SE 20.7 mph 27.6 mph N/A   Overcast
8:54 PM 26.6 °F 13.1 °F 23.0 °F 86% 29.72 in 5.0 mi SE 19.6 mph 27.6 mph 0.00 in Rain Light Freezing Rain
8:56 PM 27.0 °F 13.2 °F 23.0 °F 85% 29.79 in 5.0 mi SE 20.7 mph 26.5 mph 0.00 in Rain Light Freezing Rain
9:56 PM 26.1 °F 10.7 °F 21.9 °F 84% 29.78 in 5.0 mi SE 25.3 mph 33.4 mph 0.01 in Rain Light Freezing Rain
10:25 PM 26.6 °F 12.4 °F 23.0 °F 86% 29.71 in 5.0 mi SE 21.9 mph 31.1 mph 0.01 in Rain Light Freezing Rain
10:33 PM 26.6 °F 12.7 °F 21.2 °F 80% 29.71 in 6.0 mi SE 20.7 mph 29.9 mph 0.02 in Rain Light Freezing Rain
10:56 PM 26.1 °F 11.6 °F 21.9 °F 84% 29.78 in 6.0 mi SE 21.9 mph 27.6 mph 0.03 in Rain Light Freezing Rain
11:00 PM 26.6 °F 13.4 °F 21.2 °F 80% 29.72 in 5.0 mi SE 18.4 mph 27.6 mph 0.00 in Snow Light Snow
11:23 PM 24.8 °F 10.7 °F 21.2 °F 86% 29.72 in 2.5 mi SE 19.6 mph 27.6 mph 0.01 in Snow Light Snow
11:32 PM 24.8 °F 10.3 °F 21.2 °F 86% 29.71 in 4.0 mi SE 20.7 mph 25.3 mph 0.02 in Snow Light Snow
11:42 PM 24.8 °F 9.6 °F 21.2 °F 86% 29.71 in 1.8 mi ESE 23.0 mph 27.6 mph 0.02 in Snow Light Snow
11:51 PM 24.8 °F 11.1 °F 21.2 °F 86% 29.71 in 1.2 mi SE 18.4 mph - 0.02 in Snow Light Snow
11:56 PM 24.1 °F 9.0 °F 21.0 °F 88% 29.78 in 1.0 mi ESE 21.9 mph - 0.02 in Snow Light Snow